User: anonymous   Login
Location: Acheville
(50.3840°N, 2.8827°E)
Time: 18:27:01
(UTC+00:00)
Language:

SL-16 DEB - Orbit

View from above orbital plane
View from above orbital plane
View from above satellite
View from above satellite

Ground track
Ground track

The orbit data is extracted from the following two-line orbital elements,

1 28042U 92093JP  22222.99293699  .00000634  00000-0  37755-3 0  9998
2 28042  70.8782  64.5318 0068695  42.7425 106.4705 14.10022588314355
Epoch (UTC): 10 August 2022 23:49:49
Eccentricity: 0.0068695
inclination: 70.8782°
perigee height: 809 km
apogee height: 909 km
right ascension of ascending node: 64.5318°
argument of perigee: 42.7425°
revolutions per day: 14.10022588
mean anomaly at epoch: 106.4705°
orbit number at epoch: 31435

The dashed part of the orbit path shows where the satellite is in the earth's shadow,  

DLR